星链-4738 (STARLINK-4738 )

导读

STARLINK-4738是美国SpaceX公司于2022年9月19日发射的星链项目卫星,属于星链星座低轨卫星群的组成部分。星链项目旨在通过部署数千颗低地球轨道卫星,为全球提供高速低延迟互联网接入服务,重点覆盖偏远地区并支持多种应用场景。该卫星采用星链成熟技术方案,参与构建全球覆盖的卫星通信网络,是星链快速扩张星座规模中的一员,服务于全球宽带互联网覆盖目标。

基本信息
目录编号:
53819
目录名称:
STARLINK-4738
国际标识:
2022-114B
轨道中心:
EARTH
卫星名称:
星链-4738
卫星全名:
星链-4738 (STARLINK-4738 )
卫星状态:
在轨 (已飞行1453 天)
发射日期:
2022-09-19 UTC
国别 :
美国 (US)
星等 :
--
该卫星已列入 空间交会检测服务 Space Conjunction Data Service (SCDS) ,当前飞行风险评估等级: 高风险
轨道信息
数据来源 国际轨道数据 AOE轨道数据
星历时间 2026-09-11T12:55:54+0800
12小时前
查看轨道信息
2026-09-05T12:00:00+0800
6天前
查看轨道信息
半长轴 6848.866km 6848.866km
偏心率 0.0001673 0.000141
轨道倾角 53.159° 53.159°
近地点辐角 91.734° 79.121°
升交点赤经 179.095° 207.214°
平近点角 268.385° 83.522°
近地点 469.583km 469.763km
远地点 471.875km 471.695km
周期 94.013分钟 94.013分钟
每日圈数 15.317038 15.31704
详细信息
固有亮度:
5
最大亮度:
2.5
卫星平台:
Starlink v1.5
覆盖范围:
全球
运营商:
太空探索技术公司
运营商所在国:
美国
制造商(研发单位):
太空探索技术公司
制造商所在国:
美国
使用方式:
暂无
卫星简介
星链(Starlink)计划是由太空探索技术公司(SpaceX)提出的一个巨型低轨卫星互联网星座项目,计划在2019年至2024年间在太空搭建由约1.2万颗卫星组成的“星链”网络,其中1584颗将部署在地球上空550千米处的近地轨道,并从2020年开始工作。该卫星仍在工作。
2D轨道图
3D轨道图
轨道高度分析图
轨道倾角分析图
轨道综合分析图
查看轨道综合分析图
交会数据列表
事件ID 空间交会对象 最接近时刻(TCA) 交会距离 交会风险概率(CRP) 交会风险指数(CRI) 操作
CDM_260912-070205-381906-840021
2026-09-12T
07:02:40+0000
1.879 km
极远距离
3.243088E-6 低风险 0.45
CDM_260911-192605-381906-765921
2026-09-11T
19:26:40+0000
2.468 km
极远距离
1.629257E-6 低风险 0.39
CDM_260912-093905-381906-760821
2026-09-12T
09:39:39+0000
2.647 km
极远距离
1.555717E-6 低风险 0.39
CDM_260913-090905-381906-757822
2026-09-13T
09:09:15+0000
2.773 km
极远距离
1.450829E-6 低风险 0.38
CDM_260912-220605-381906-524721
2026-09-12T
22:06:29+0000
2.815 km
极远距离
1.36797E-6 低风险 0.38
CDM_260912-075905-381906-890821
2026-09-12T
07:59:06+0000
2.968 km
极远距离
1.132677E-6 低风险 0.36
CDM_260913-135705-381906-755421
2026-09-13T
13:57:19+0000
2.427 km
极远距离
1.127163E-6 低风险 0.36
CDM_260913-132505-381906-787921
2026-09-13T
13:25:39+0000
2.906 km
极远距离
8.541314E-7 极低风险 0.34
与全量物体交会距离演化趋势
与全量物体交会风险概率演化趋势